E23XBQ-1 Weather Reports


Display with metric or nautical units.
time (UTC)temp
F
wind
direction
speed
MPH
gust
MPH
rain 1hr
in
rain 24hr
in
rain mn
in
humidity
%
barometer
mb
20260506004912 82 0 0.0 0.0 0.00 0.00 0.00 86 973.0
20260506003846 83 0 0.0 0.0 0.00 0.00 0.00 84 973.0
20260506002820 82 0 0.0 0.0 0.00 0.00 0.00 88 973.0
20260506002815 82 0 0.0 0.0 0.00 0.00 0.00 88 973.0
20260506001750 84 0 0.0 0.0 0.00 0.00 0.00 78 973.0
20260506000726 82 0 0.0 0.0 0.00 0.00 0.00 81 973.0
20260505235701 82 0 0.0 0.0 0.00 0.00 0.00 82 973.0
20260505234637 80 0 0.0 0.0 0.00 0.00 0.00 90 972.0
20260505233613 81 0 0.0 0.0 0.00 0.00 0.00 89 972.0
20260505232548 79 0 0.0 0.0 0.00 0.00 0.00 96 972.0
20260505231523 78 0 0.0 0.0 0.00 0.00 0.00 99 972.0
20260505230458 78 0 0.0 0.0 0.00 0.00 0.00 99 972.0
20260505225433 77 0 0.0 0.0 0.00 0.00 0.00 99 972.0
20260505224357 77 0 0.0 0.0 0.00 0.00 0.00 99 972.0
20260505223332 78 0 0.0 0.0 0.00 0.00 0.00 99 971.0
20260505222308 78 0 0.0 0.0 0.00 0.00 0.00 96 971.0
20260505221243 77 0 0.0 0.0 0.00 0.00 0.00 99 971.0
20260505220219 78 0 0.0 0.0 0.00 0.00 0.00 99 971.0
20260505215154 78 0 0.0 0.0 0.00 0.00 0.00 99 971.0
20260505214130 77 0 0.0 0.0 0.00 0.00 0.00 99 971.0
20260505213105 78 0 0.0 0.0 0.00 0.00 0.00 99 971.0
20260505212041 78 0 0.0 0.0 0.00 0.00 0.00 99 971.0
20260505211016 78 0 0.0 0.0 0.00 0.00 0.00 99 971.0
20260505205951 78 0 0.0 0.0 0.00 0.00 0.00 99 971.0
20260505204927 78 0 0.0 0.0 0.00 0.00 0.00 99 971.0
20260505203902 78 0 0.0 0.0 0.00 0.00 0.00 99 971.0
20260505202838 78 0 0.0 0.0 0.00 0.00 0.00 99 971.0
20260505201813 78 0 0.0 0.0 0.00 0.00 0.00 99 971.0
20260505200748 78 0 0.0 0.0 0.00 0.00 0.00 96 971.0
20260505195724 78 0 0.0 0.0 0.00 0.00 0.00 99 971.0
20260505194700 78 0 0.0 0.0 0.00 0.00 0.00 99 971.0
20260505193635 78 0 0.0 0.0 0.00 0.00 0.00 99 971.0
20260505192609 79 0 0.0 0.0 0.00 0.00 0.00 99 971.0
20260505191545 79 0 0.0 0.0 0.00 0.00 0.00 90 971.0
20260505190520 79 0 0.0 0.0 0.00 0.00 0.00 91 971.0
20260505185455 79 0 0.0 0.0 0.00 0.00 0.00 99 972.0
20260505184430 79 0 0.0 0.0 0.00 0.00 0.00 99 972.0
20260505183405 79 0 0.0 0.0 0.00 0.00 0.00 99 972.0
20260505182341 80 0 0.0 0.0 0.00 0.00 0.00 99 972.0
20260505181316 80 0 0.0 0.0 0.00 0.00 0.00 90 972.0
20260505180252 80 0 0.0 0.0 0.00 0.00 0.00 83 972.0
20260505175227 81 0 0.0 0.0 0.00 0.00 0.00 77 972.0
20260505174202 80 0 0.0 0.0 0.00 0.00 0.00 97 972.0
20260505173137 80 0 0.0 0.0 0.00 0.00 0.00 94 972.0
20260505172112 81 0 0.0 0.0 0.00 0.00 0.00 91 972.0
20260505171048 81 0 0.0 0.0 0.00 0.00 0.00 93 973.0
20260505170023 81 0 0.0 0.0 0.00 0.00 0.00 94 973.0
20260505164959 81 0 0.0 0.0 0.00 0.00 0.00 93 973.0
20260505163934 81 0 0.0 0.0 0.00 0.00 0.00 86 973.0
20260505162909 81 0 0.0 0.0 0.00 0.00 0.00 85 973.0
20260505161844 82 0 0.0 0.0 0.00 0.00 0.00 84 973.0
20260505160820 82 0 0.0 0.0 0.00 0.00 0.00 81 973.0
20260505152640 84 0 0.0 0.0 0.00 0.00 0.00 82 973.0
20260505151615 84 0 0.0 0.0 0.00 0.00 0.00 77 973.0
20260505150550 84 0 0.0 0.0 0.00 0.00 0.00 76 973.0
20260505140317 85 0 0.0 0.0 0.00 0.00 0.00 63 971.0
20260505125023 86 0 0.0 0.0 0.00 0.00 0.00 67 970.0
20260505123958 86 0 0.0 0.0 0.00 0.00 0.00 69 970.0
20260505122934 85 0 0.0 0.0 0.00 0.00 0.00 70 970.0
20260505121907 86 0 0.0 0.0 0.00 0.00 0.00 71 969.0
20260505120844 86 0 0.0 0.0 0.00 0.00 0.00 66 969.0
20260505120842 86 0 0.0 0.0 0.00 0.00 0.00 66 969.0
20260505115817 87 0 0.0 0.0 0.00 0.00 0.00 63 969.0
20260505114752 88 0 0.0 0.0 0.00 0.00 0.00 64 969.0
20260505113727 89 0 0.0 0.0 0.00 0.00 0.00 60 969.0
20260505112703 89 0 0.0 0.0 0.00 0.00 0.00 60 969.0
20260505111638 90 0 0.0 0.0 0.00 0.00 0.00 57 969.0
20260505110615 90 0 0.0 0.0 0.00 0.00 0.00 54 968.0
20260505101412 94 0 0.0 0.0 0.00 0.00 0.00 50 969.0
20260505100347 94 0 0.0 0.0 0.00 0.00 0.00 48 969.0
20260505095322 95 0 0.0 0.0 0.00 0.00 0.00 48 969.0
20260505094257 95 0 0.0 0.0 0.00 0.00 0.00 48 969.0
20260505093233 95 0 0.0 0.0 0.00 0.00 0.00 48 969.0
20260505092208 95 0 0.0 0.0 0.00 0.00 0.00 51 969.0
20260505091144 93 0 0.0 0.0 0.00 0.00 0.00 54 969.0
20260505090120 93 0 0.0 0.0 0.00 0.00 0.00 53 969.0
20260505085055 93 0 0.0 0.0 0.00 0.00 0.00 53 969.0
20260505084031 94 0 0.0 0.0 0.00 0.00 0.00 51 969.0
20260505083007 95 0 0.0 0.0 0.00 0.00 0.00 53 970.0
20260505081942 94 0 0.0 0.0 0.00 0.00 0.00 53 970.0
20260505080918 92 0 0.0 0.0 0.00 0.00 0.00 54 970.0
20260505075853 92 0 0.0 0.0 0.00 0.00 0.00 55 970.0
20260505074826 92 0 0.0 0.0 0.00 0.00 0.00 57 970.0
20260505073801 92 0 0.0 0.0 0.00 0.00 0.00 53 970.0
20260505072737 93 0 0.0 0.0 0.00 0.00 0.00 52 971.0
20260505071712 94 0 0.0 0.0 0.00 0.00 0.00 48 971.0
20260505070648 95 0 0.0 0.0 0.00 0.00 0.00 48 971.0
20260505065622 99 0 0.0 0.0 0.00 0.00 0.00 44 971.0
20260505064557 98 0 0.0 0.0 0.00 0.00 0.00 44 971.0
20260505063532 98 0 0.0 0.0 0.00 0.00 0.00 45 972.0
20260505062506 97 0 0.0 0.0 0.00 0.00 0.00 46 972.0
20260505061442 97 0 0.0 0.0 0.00 0.00 0.00 46 972.0
20260505060418 96 0 0.0 0.0 0.00 0.00 0.00 48 972.0
20260505055353 96 0 0.0 0.0 0.00 0.00 0.00 48 973.0
20260505054329 95 0 0.0 0.0 0.00 0.00 0.00 49 973.0
20260505053304 96 0 0.0 0.0 0.00 0.00 0.00 49 973.0
20260505052240 94 0 0.0 0.0 0.00 0.00 0.00 51 973.0
20260505051214 95 0 0.0 0.0 0.00 0.00 0.00 50 974.0
20260505050149 94 0 0.0 0.0 0.00 0.00 0.00 53 974.0
20260505040943 94 0 0.0 0.0 0.00 0.00 0.00 52 975.0
20260505035919 94 0 0.0 0.0 0.00 0.00 0.00 55 975.0
20260505034853 93 0 0.0 0.0 0.00 0.00 0.00 55 975.0
20260505033829 93 0 0.0 0.0 0.00 0.00 0.00 57 975.0
20260505032805 92 0 0.0 0.0 0.00 0.00 0.00 58 975.0
20260505031740 90 0 0.0 0.0 0.00 0.00 0.00 59 975.0
20260505030716 90 0 0.0 0.0 0.00 0.00 0.00 59 975.0
20260505025651 91 0 0.0 0.0 0.00 0.00 0.00 60 976.0
20260505024626 90 0 0.0 0.0 0.00 0.00 0.00 64 976.0
20260505023602 90 0 0.0 0.0 0.00 0.00 0.00 62 976.0
20260505022537 89 0 0.0 0.0 0.00 0.00 0.00 67 976.0
20260505021513 88 0 0.0 0.0 0.00 0.00 0.00 75 975.0
20260505020448 86 0 0.0 0.0 0.00 0.00 0.00 79 975.0
20260505015423 85 0 0.0 0.0 0.00 0.00 0.00 85 975.0
20260505014359 85 0 0.0 0.0 0.00 0.00 0.00 84 975.0
20260505013336 84 0 0.0 0.0 0.00 0.00 0.00 89 975.0
20260505012310 81 0 0.0 0.0 0.00 0.00 0.00 99 975.0
20260505011245 80 0 0.0 0.0 0.00 0.00 0.00 99 976.0
20260505010221 80 0 0.0 0.0 0.00 0.00 0.00 99 975.0
20260505005156 79 0 0.0 0.0 0.00 0.00 0.00 99 975.0